Change the Weather History Date:

Friday, August 15, 2014

  Actual Average Record
Temperature  
Mean Temperature 75 °F 72 °F  
Max Temperature 91 °F 87 °F 100 °F (2003)
Min Temperature 59 °F 58 °F 43 °F (1944)
Degree Days  
Heating Degree Days 0 0  
Month to date heating degree days 0 0  
Since 1 June heating degree days 90 111  
Since 1 July heating degree days 1 15  
Cooling Degree Days 10 8  
Month to date cooling degree days 153 130  
Year to date cooling degree days 492 488  
Since 1 June cooling degree days 476 471  
Growing Degree Days 26 (Base 50)    
Moisture  
Dew Point 57 °F    
Average Humidity 59    
Maximum Humidity 90    
Minimum Humidity 27    
Precipitation  
Precipitation 0.13 in 0.02 in 0.42 in (1980)
Month to date precipitation 0.18 0.38  
Year to date precipitation 10.10 9.68  
Snow  
Snow 0.00 in 0.00 in 0.00 in (2002)
Month to date snowfall 0.0 0.0  
Since 1 June snowfall T 0.0  
Since 1 July snowfall 0.0 0.0  
Snow Depth 0.00 in    
Sea Level Pressure  
Sea Level Pressure 29.94 in    
Wind  
Wind Speed 9 mph (South)    
Max Wind Speed 30 mph    
Max Gust Speed 39 mph    
Visibility 10 miles    
Events Rain , Thunderstorm    
T = Trace of Precipitation, MM = Missing Value Source: NWS Daily Summary

Daily Weather History Graph

Daily Weather History Graph

Search for Another Location

Airport or City:

Trip Planner

Search our weather history database for the weather conditions in past years. The results will help you decide how hot, cold, wet, or windy it might be!

Date:

Astronomy

Aug. 15, 2014 Rise Set
Actual Time 6:14 AM MDT 8:22 PM MDT
Civil Twilight 5:41 AM MDT 8:54 PM MDT
Nautical Twilight 5:01 AM MDT 9:34 PM MDT
Astronomical Twilight 4:16 AM MDT 10:18 PM MDT
Moon 11:05 PM MDT (8/15) 12:20 PM MDT (8/15)
Length of Visible Light 15h 12m
Length of Day
14h 07m
Waning Gibbous, 68% of the Moon is Illuminated
Aug 15
Waning Gibbous
Aug 17
Last Quarter
Aug 25
New
Sep 2
First Quarter
Sep 8
Full

Hourly Weather History & Observations

Time (MDT) Temp. Heat Index Dew Point Humidity Pressure Visibility Wind Dir Wind Speed Gust Speed Precip Events Conditions
12:53 AM 66.0 °F - 59.0 °F 78% 29.94 in 10.0 mi NE 3.5 mph - N/A   Partly Cloudy
1:53 AM 63.0 °F - 59.0 °F 87% 29.95 in 10.0 mi SW 5.8 mph - N/A   Partly Cloudy
2:53 AM 64.0 °F - 57.9 °F 80% 29.94 in 10.0 mi SW 4.6 mph - N/A   Clear
3:53 AM 61.0 °F - 57.9 °F 90% 29.95 in 10.0 mi SSW 6.9 mph - N/A   Clear
4:53 AM 60.1 °F - 57.9 °F 93% 29.95 in 10.0 mi SW 9.2 mph - N/A   Partly Cloudy
5:53 AM 61.0 °F - 57.9 °F 90% 29.95 in 10.0 mi SW 11.5 mph - N/A   Partly Cloudy
6:53 AM 60.1 °F - 57.0 °F 90% 29.96 in 10.0 mi SW 11.5 mph - N/A   Partly Cloudy
7:53 AM 62.6 °F - 57.2 °F 82% 30.04 in 10.0 mi SSW 12.7 mph - N/A   Partly Cloudy
8:53 AM 66.0 °F - 57.0 °F 73% 29.97 in 10.0 mi SSW 10.4 mph - N/A   Partly Cloudy
9:53 AM 71.1 °F - 57.0 °F 61% 29.96 in 10.0 mi SW 11.5 mph - N/A   Partly Cloudy
10:53 AM 75.9 °F - 57.0 °F 52% 29.96 in 10.0 mi SW 9.2 mph - N/A   Partly Cloudy
11:53 AM 80.1 °F 80.7 °F 59.0 °F 48% 29.94 in 10.0 mi SW 8.1 mph - N/A   Partly Cloudy
12:53 PM 86.0 °F 84.9 °F 57.0 °F 37% 29.91 in 10.0 mi NNE 4.6 mph - N/A   Partly Cloudy
1:53 PM 84.9 °F 83.9 °F 57.0 °F 38% 29.90 in 10.0 mi Variable 3.5 mph - N/A   Partly Cloudy
2:53 PM 88.0 °F 86.1 °F 55.0 °F 32% 29.87 in 10.0 mi Variable 4.6 mph - N/A   Scattered Clouds
3:53 PM 88.0 °F 85.7 °F 53.1 °F 30% 29.86 in 10.0 mi East 13.8 mph - N/A   Scattered Clouds
4:53 PM 89.1 °F - 51.1 °F 27% 29.83 in 10.0 mi East 9.2 mph - N/A   Scattered Clouds
5:36 PM 86.0 °F - 52.0 °F 31% 29.95 in 10.0 mi ENE 9.2 mph - N/A Thunderstorm Thunderstorm
5:53 PM 81.0 °F - 51.1 °F 35% 29.87 in 10.0 mi NW 25.3 mph - N/A Thunderstorm Thunderstorm
6:08 PM 73.4 °F - 57.2 °F 57% 29.97 in 4.0 mi NW 20.7 mph 39.1 mph N/A Rain , Thunderstorm Heavy Thunderstorms and Rain
6:38 PM 69.1 °F - 57.0 °F 65% 29.95 in 10.0 mi East 11.5 mph - 0.13 in Thunderstorm Thunderstorm
6:53 PM 68.0 °F - 55.9 °F 65% 29.92 in 10.0 mi NE 10.4 mph 20.7 mph 0.13 in   Mostly Cloudy
7:53 PM 66.9 °F - 57.0 °F 70% 29.92 in 10.0 mi East 10.4 mph - 0.00 in   Mostly Cloudy
8:28 PM 66.0 °F - 59.0 °F 78% 30.01 in 10.0 mi NW 9.2 mph - N/A Thunderstorm Thunderstorm
8:53 PM 66.9 °F - 55.9 °F 68% 29.91 in 10.0 mi ENE 5.8 mph - 0.00 in Thunderstorm Thunderstorm
9:17 PM 66.9 °F - 55.0 °F 66% 30.01 in 10.0 mi East 3.5 mph - N/A   Scattered Clouds
9:53 PM 64.9 °F - 57.0 °F 75% 29.94 in 10.0 mi Calm Calm - N/A   Partly Cloudy
11:33 PM 66.0 °F - 57.9 °F 75% 30.02 in 10.0 mi NE 3.5 mph - 0.00 in Rain , Thunderstorm Light Thunderstorms and Rain
11:53 PM 64.0 °F - 59.0 °F 84% 29.94 in 10.0 mi NNE 3.5 mph - 0.00 in Rain Light Rain